Location: Pedro
(43.9050°N, 104.3408°W)
Time: 22:21:14
(UTC+00:00)

FO-29 - Visible Passes

Search period start: 01 December 2023 00:00
Search period end: 11 December 2023 00:00
Orbit: 800 x 1321 km, 98.6° (Epoch: 29 November)

Date Brightness Start Highest point End Pass type
(mag) Time Alt. Az. Time Alt. Az. Time Alt. Az.
01 Dec 12.2 09:25:41 10° NNE 09:26:40 14° NNE 09:26:40 14° NNE visible
01 Dec 11.5 11:11:01 10° N 11:13:08 20° N 11:13:08 20° N visible
02 Dec 11.8 10:15:29 10° NNE 10:17:15 19° N 10:17:15 19° N visible
02 Dec 11.6 12:02:03 10° NNW 12:03:44 15° NNW 12:03:44 15° NNW visible
03 Dec 12.3 09:20:35 10° NNE 09:21:23 13° NNE 09:21:23 13° NNE visible
03 Dec 11.6 11:05:49 10° N 11:07:51 20° N 11:07:51 20° N visible
04 Dec 11.9 10:10:21 10° NNE 10:11:59 18° NNE 10:11:59 18° NNE visible
04 Dec 11.6 11:56:45 10° NNW 11:58:27 15° NNW 11:58:27 15° NNW visible
05 Dec 12.4 09:15:30 10° NNE 09:16:06 13° NNE 09:16:06 13° NNE visible
05 Dec 11.6 11:00:38 10° N 11:02:35 19° N 11:02:35 19° N visible
06 Dec 11.9 10:05:13 10° NNE 10:06:43 18° NNE 10:06:43 18° NNE visible
06 Dec 11.7 11:51:29 10° N 11:53:11 15° NNW 11:53:11 15° NNW visible
07 Dec 12.4 09:10:26 10° NNE 09:10:51 12° NNE 09:10:51 12° NNE visible
07 Dec 11.7 10:55:27 10° N 10:57:19 19° N 10:57:19 19° N visible
08 Dec 12.0 10:00:06 10° NNE 10:01:27 17° NNE 10:01:27 17° NNE visible
08 Dec 11.7 11:46:15 10° N 11:47:56 16° NNW 11:47:56 16° NNW visible
09 Dec 12.5 09:05:24 10° NNE 09:05:36 11° NNE 09:05:36 11° NNE visible
09 Dec 11.8 10:50:18 10° N 10:52:04 18° N 10:52:04 18° N visible
09 Dec 11.9 12:38:30 10° NNW 12:38:32 10° NNW 12:38:32 10° NNW visible
10 Dec 12.1 09:55:00 10° NNE 09:56:13 16° NNE 09:56:13 16° NNE visible
10 Dec 11.7 11:41:02 10° N 11:42:41 16° NNW 11:42:41 16° NNW visible
